(68) Leto
ephemeris date magn radius delta ra dec elong phase
Today15 Sep 202511.32.412 AU1.902 AU04h08m+20°20'108.1°23.3°
Opposition20 Nov 202510.02.524 AU1.537 AU03h40m+22°51'176.8°1.3°
(68) Leto - 2025-09-15
astro.vanbuitenen.nl


 
-1 year
-1 month
-1 day
Now
+1 day
+1 month
+1 year

The interactive orbit chart above shows the body's path through the solar system and its position at the given date. Green and blue lines are shown perpendicular to the ecliptic plane: Green if the path is above the ecliptic plane, blue if it is below. (Left-click and drag to rotate the view; Right-click and drag to move the view; Use scroll wheel to zoom in our out.)

The orbital elements of Leto are:

            e (Eccentricity)                : 0.1843252
            a (Semimajor axis)              : 2.7824271
            i (Inclination)                 : 7.96099
            Ω (Longitude of ascending node) : 44.04880
            ω (Argument of perihelion)      : 304.84262
            M (Mean anomaly)                : 8.23054
            Epoch                           : 2025 May 05

            L (Longitude of perihelion)     : -10.84797
            B (Latitude of perihelion)      : -6.52688
            P (Orbital period in years)     : 4.64            
        

The light curve chart below shows the estimated development of the minor planet's magnitude.


The all-sky chart below shows the path of the minor planet over the same period as the light curve. The current position is marked yellow.





The following chart shows the path of the minor planet in the next few days. The field of view is optimized for (~10x50) binoculars and finderscopes. A more printer-friendly version of the same chart can be found below.




Ephemerides:
Date       Time       RA (2000)    DEC (2000)    delta   radius  elong  phase   PA    magn
2025-09-15 00:00 UT   04 08 14.5   +20 20 03     1.902    2.412  108.1   23.3   259   11.3 
2025-09-15 14:35 UT   04 08 33.5   +20 22 34     1.896    2.413  108.6   23.3   259   11.3 
2025-09-16 00:00 UT   04 08 45.4   +20 24 11     1.892    2.414  109.0   23.2   259   11.3 
2025-09-17 00:00 UT   04 09 14.6   +20 28 16     1.882    2.415  109.8   23.1   260   11.3 
2025-09-18 00:00 UT   04 09 42.1   +20 32 18     1.871    2.417  110.7   22.9   260   11.3 
2025-09-19 00:00 UT   04 10 08.0   +20 36 18     1.861    2.418  111.5   22.7   260   11.3 
2025-09-20 00:00 UT   04 10 32.2   +20 40 15     1.852    2.420  112.4   22.6   260   11.2 
2025-09-21 00:00 UT   04 10 54.7   +20 44 09     1.842    2.421  113.3   22.4   260   11.2 
2025-09-22 00:00 UT   04 11 15.5   +20 48 00     1.832    2.423  114.2   22.2   260   11.2 
2025-09-23 00:00 UT   04 11 34.5   +20 51 49     1.822    2.424  115.1   22.0   260   11.2 
2025-09-24 00:00 UT   04 11 51.7   +20 55 34     1.813    2.426  116.0   21.8   260   11.2 
2025-09-25 00:00 UT   04 12 07.2   +20 59 18     1.803    2.428  116.9   21.6   260   11.2 
2025-09-26 00:00 UT   04 12 20.9   +21 02 58     1.794    2.429  117.8   21.4   260   11.1 
2025-09-27 00:00 UT   04 12 32.7   +21 06 35     1.784    2.431  118.7   21.2   260   11.1 
2025-09-28 00:00 UT   04 12 42.8   +21 10 10     1.775    2.432  119.7   21.0   260   11.1 
2025-09-29 00:00 UT   04 12 50.9   +21 13 42     1.766    2.434  120.6   20.8   260   11.1 
2025-09-30 00:00 UT   04 12 57.3   +21 17 11     1.757    2.436  121.5   20.5   260   11.1 
2025-10-01 00:00 UT   04 13 01.7   +21 20 38     1.748    2.437  122.5   20.3   260   11.1 
2025-10-02 00:00 UT   04 13 04.3   +21 24 01     1.739    2.439  123.5   20.0   260   11.0 
2025-10-03 00:00 UT   04 13 05.0   +21 27 22     1.731    2.440  124.4   19.8   259   11.0 
2025-10-04 00:00 UT   04 13 03.8   +21 30 40     1.722    2.442  125.4   19.5   259   11.0 
2025-10-05 00:00 UT   04 13 00.7   +21 33 55     1.714    2.444  126.4   19.2   259   11.0 
2025-10-06 00:00 UT   04 12 55.7   +21 37 07     1.705    2.445  127.4   19.0   259   11.0 
2025-10-07 00:00 UT   04 12 48.8   +21 40 15     1.697    2.447  128.4   18.7   259   10.9 
2025-10-08 00:00 UT   04 12 39.9   +21 43 21     1.689    2.448  129.4   18.4   259   10.9 
2025-10-09 00:00 UT   04 12 29.1   +21 46 24     1.681    2.450  130.4   18.1   259   10.9 
2025-10-10 00:00 UT   04 12 16.4   +21 49 23     1.674    2.452  131.5   17.8   259   10.9 
2025-10-11 00:00 UT   04 12 01.8   +21 52 19     1.666    2.453  132.5   17.5   259   10.9 
2025-10-12 00:00 UT   04 11 45.2   +21 55 11     1.659    2.455  133.5   17.1   259   10.9 
2025-10-13 00:00 UT   04 11 26.7   +21 58 00     1.651    2.457  134.6   16.8   259   10.8 
2025-10-14 00:00 UT   04 11 06.3   +22 00 46     1.644    2.458  135.6   16.5   259   10.8 
2025-10-15 00:00 UT   04 10 43.9   +22 03 28     1.637    2.460  136.7   16.1   258   10.8 


    Terminology:
            
    delta:  distance between minor planet and earth in AU
    radius: distance between minor planet and sun in AU
    magn:   magnitude (brightness) estimate    
    ra:     right ascension in hours (24h = 360deg)
    dec:    declination in degrees
    elong:  elongation in degrees (angle sun-earth-minor planet)    
    phase:  phase angle in degrees (angle sun-minor planet-earth)        
    AU:     Astronomical Unit (mean distance between earth and sun: 149597870.7 km
    

Orbital elements provided by the MPC (Minor Planet Center).
Calculations by a modified version of AAPlus, a C# implementation of the AA+ project by PJ Naughter from the algorithms presented in the book "Astronomical Algorithms" by Jean Meeus.
NGC2000 dso catalog and star labels from VizieR as provided by the Strasbourg astronomical Data Center.
Tycho2 catalog from the ESO archive.